[[{"header":{"parameterUnit":"m.s-1","parameterCategory":1,"la1":30.2991,"la2":30.254,"lo1":-89.0895,"lo2":-89.0444,"dy":0.0017,"dx":0.0017,"nx":28,"ny":28,"refTime":"2023-07-22T03:00:00:Z","depth":0,"parameterNumber":2,"parameterNumberName":"U-component_of_WINDS"},"data":[0,0,0,0,0,0,0,0,0,0,0,0,0,0,0,0,0,0,0,0,0,0,0,0,0,0,0,0,0,0,0,0,0,0,0,0,0,0,0,0,0,0,0,0,0,0,0,0,0,0,0,0,0,0,0,0,0,0,2.4891,2.4893,0,2.5017,2.5019,2.502,2.5023,2.5021,2.502,2.5018,2.5149,2.5154,2.5159,0,0,0,0,0,0,0,0,0,0,0,0,0,2.4655,2.4659,2.4891,2.4893,2.4894,2.5017,2.5019,2.502,2.5023,2.5021,2.5019,2.5018,2.5148,2.5153,2.5159,0,0,0,0,0,0,0,0,0,0,0,0,0,2.4767,2.466,2.4891,2.491,2.4913,2.5017,2.5019,2.5021,2.5024,2.5021,2.5019,2.5017,2.5146,2.5153,2.516,2.5253,0,0,2.5183,2.5186,0,0,0,0,0,0,0,0,2.476,2.4775,2.4906,2.4909,2.4913,2.5002,2.4983,2.5099,2.5024,2.4982,2.5018,2.5016,2.5102,2.5113,2.5142,2.5259,2.5265,2.5184,2.5188,2.5191,2.5193,0,0,0,0,0,0,0,2.4753,2.477,2.4941,2.4908,2.4912,2.4913,2.4927,2.5005,2.5054,2.4985,2.4986,2.5001,2.5104,2.5135,2.5145,2.5267,2.5183,2.519,2.5194,2.5197,2.5465,2.5467,0,0,0,0,0,0,2.4741,2.4764,2.4937,2.4945,2.4829,2.492,2.4935,2.4976,2.5053,2.5062,2.5002,2.5,2.5123,2.5136,2.515,2.5261,2.5191,2.5198,2.5202,2.5462,2.5465,2.5468,0,0,0,0,0,0,2.4736,2.4756,2.4932,2.4854,2.4877,2.4926,2.4972,2.4979,2.501,2.5066,2.5075,2.5025,2.5122,2.5139,2.5227,2.5266,2.5201,2.5208,2.5459,2.5463,2.5467,2.5486,0,0,0,0,0,0,2.4729,2.4754,2.4789,2.4855,2.4881,2.5006,2.4975,2.4984,2.5023,2.5021,2.5089,2.5098,2.5121,2.5216,2.5234,2.5275,2.5214,2.5455,2.5461,2.5465,2.5482,2.549,2.5497,0,0,0,0,0,2.472,2.4791,2.4791,2.4812,2.4926,2.5008,2.5023,2.5048,2.5026,2.5062,2.5097,2.5096,2.5259,2.5225,2.5245,2.5289,2.5453,2.5459,2.5465,2.5479,2.5489,2.5497,0,0,0,0,0,0,2.4729,2.48,2.4801,2.4895,2.4945,2.5009,2.5054,2.5058,2.5116,2.5112,2.5141,2.5156,2.5243,2.5275,2.5235,2.5382,2.5354,2.5364,2.5357,2.5367,2.5374,2.5363,2.522,0,0,0,0,0,2.4742,2.4802,2.4861,2.4938,2.4964,2.5005,2.5042,2.5056,2.511,2.5132,2.5174,2.5227,2.529,2.5331,2.5392,2.5488,2.5502,2.5528,2.5536,2.5542,2.5549,2.5601,2.5613,2.5488,2.5488,2.5487,0,0,2.4769,2.4815,2.4851,2.4941,2.4982,2.5044,2.5023,2.509,2.5136,2.5142,2.5226,2.5259,2.5321,2.5412,2.5455,2.5442,2.5588,2.5549,2.5554,2.5558,2.5608,2.562,2.5631,2.5492,2.5491,2.549,0,0,2.4849,2.4891,2.4958,2.5,2.5062,2.5089,2.5105,2.5169,2.519,2.5275,2.5281,2.5337,2.5446,2.5488,2.5524,2.5621,2.5621,2.5641,2.5679,2.5729,2.5738,2.5747,2.5779,2.5791,2.5649,2.5649,2.5649,0,2.4874,2.4967,2.4993,2.5059,2.5098,2.5106,2.5175,2.5214,2.5294,2.532,2.5305,2.5441,2.5483,2.5583,2.5607,2.5637,2.5655,2.5631,2.5735,2.5744,2.5753,2.5784,2.5796,2.5651,2.565,2.565,2.565,0,2.4994,2.5059,2.5106,2.5181,2.5226,2.5293,2.5329,2.5372,2.5383,2.5411,2.5498,2.5549,2.5619,2.5645,2.5658,2.5748,2.5738,2.5729,2.57,2.5766,2.5795,2.5808,2.5653,2.5652,2.5652,2.5651,0,0,2.5081,2.5169,2.5186,2.5219,2.5289,2.534,2.5408,2.5476,2.5511,2.5567,2.5623,2.5715,2.5707,2.5748,2.5765,2.581,2.588,2.5795,2.5797,2.5807,2.5981,2.5984,2.5998,2.5882,2.5885,2.5887,2.5975,0,2.5166,2.5285,2.531,2.5413,2.5472,2.5482,2.5541,2.5591,2.562,2.5675,2.5708,2.5771,2.5757,2.5782,2.5826,2.5862,2.5915,2.5857,2.5934,2.5937,2.5915,2.6014,2.6019,2.6099,2.5987,2.5989,2.599,0,2.528,2.5336,2.5445,2.5506,2.5532,2.5584,2.5648,2.5702,2.5758,2.5776,2.5822,2.5835,2.5906,2.5876,2.5974,2.5934,2.5968,2.5991,2.5994,2.6,2.5965,2.6019,2.6125,2.6136,2.6009,2.6008,2.6006,0,2.5328,2.5432,2.551,2.5539,2.5613,2.5649,2.5682,2.5736,2.5775,2.5833,2.5858,2.5924,2.5959,2.6009,2.6039,2.6015,2.6134,2.6108,2.615,2.615,2.6172,2.617,2.6282,2.62,2.6199,2.6199,2.6199,0,2.5419,2.5484,2.5532,2.558,2.5653,2.5683,2.5755,2.5788,2.5836,2.589,2.5905,2.5955,2.5994,2.605,2.6075,2.6151,2.6168,2.6184,2.6189,2.6181,2.6178,2.6201,2.6195,2.6202,2.6202,2.6201,2.62,0,2.5484,2.5519,2.5604,2.5667,2.5684,2.5736,2.579,2.5836,2.5867,2.5935,2.5953,2.6,2.6067,2.6103,2.6188,2.6204,2.6289,2.6293,2.6269,2.6271,2.631,2.6305,2.6438,2.6457,2.6364,2.6365,2.6366,0,2.5537,2.5588,2.5656,2.5693,2.5725,2.5785,2.5825,2.5857,2.5898,2.5966,2.6005,2.6073,2.6128,2.6235,2.6277,2.6341,2.6345,2.6388,2.6355,2.6344,2.6342,2.6338,2.6342,2.6392,2.6393,2.6394,2.6394,0,2.5628,2.5643,2.5699,2.5762,2.5809,2.5861,2.5911,2.5941,2.5981,2.6027,2.6095,2.6138,2.6224,2.6291,2.6359,2.6393,2.64,2.6405,2.6417,2.6408,2.6391,2.6398,2.6281,2.6401,2.64,2.64,2.6399,2.6399,2.5687,2.5731,2.5786,2.5848,2.589,2.5937,2.5983,2.6019,2.6076,2.6147,2.6164,2.6235,2.6291,2.6383,2.6419,2.6476,2.6467,2.6487,2.6491,2.6494,2.6494,2.6385,2.6489,2.6489,2.6489,2.6489,2.6488,0,2.5775,2.5811,2.5868,2.5938,2.5988,2.5991,2.6047,2.6088,2.615,2.6202,2.6256,2.6334,2.6399,2.6447,2.6513,2.6549,2.6554,2.6565,2.6561,2.6569,2.65,2.648,2.656,2.656,2.656,2.656,2.656,2.656,2.5827,2.5901,2.5923,2.6019,2.6055,2.6124,2.6155,2.6199,2.624,2.6326,2.6379,2.641,2.646,2.653,2.659,2.6602,2.6625,2.6635,2.6648,2.6582,2.6574,2.6566,2.6548,2.6641,2.6641,2.6712,2.6712,2.6713]},{"header":{"parameterUnit":"m.s-1","parameterCategory":1,"la1":30.2991,"la2":30.254,"lo1":-89.0895,"lo2":-89.0444,"dy":0.0017,"dx":0.0017,"nx":28,"ny":28,"refTime":"2023-07-22T03:00:00:Z","depth":0,"parameterNumber":3,"parameterNumberName":"V-component_of_WINDS"},"data":[0,0,0,0,0,0,0,0,0,0,0,0,0,0,0,0,0,0,0,0,0,0,0,0,0,0,0,0,0,0,0,0,0,0,0,0,0,0,0,0,0,0,0,0,0,0,0,0,0,0,0,0,0,0,0,0,0,0,4.2102,4.2103,0,4.2189,4.219,4.2191,4.2171,4.2169,4.2167,4.2166,4.225,4.2253,4.2257,0,0,0,0,0,0,0,0,0,0,0,0,0,4.1907,4.1911,4.2101,4.2103,4.2104,4.2189,4.219,4.2192,4.2171,4.2169,4.2167,4.2165,4.2249,4.2253,4.2258,0,0,0,0,0,0,0,0,0,0,0,0,0,4.1993,4.1912,4.2101,4.2104,4.2105,4.2189,4.219,4.2192,4.2171,4.2169,4.2166,4.2164,4.2247,4.2253,4.2258,4.2343,0,0,4.2276,4.2278,0,0,0,0,0,0,0,0,4.1988,4.2,4.2102,4.2104,4.2105,4.2167,4.2153,4.2242,4.2172,4.2146,4.2166,4.2163,4.2224,4.2231,4.2253,4.2347,4.2351,4.2276,4.2279,4.2282,4.2283,0,0,0,0,0,0,0,4.1982,4.1996,4.2136,4.2104,4.2106,4.2098,4.2107,4.217,4.2198,4.2148,4.2147,4.2158,4.2224,4.2248,4.2255,4.2352,4.2276,4.2281,4.2284,4.2287,4.2514,4.2517,0,0,0,0,0,0,4.1976,4.1991,4.2133,4.2139,4.204,4.2103,4.2114,4.2149,4.2197,4.2202,4.216,4.2157,4.2239,4.2248,4.2258,4.2356,4.2282,4.2287,4.229,4.2512,4.2515,4.2518,0,0,0,0,0,0,4.1972,4.1989,4.213,4.2065,4.2082,4.2109,4.2149,4.2152,4.2176,4.2206,4.221,4.2179,4.2237,4.225,4.2321,4.2359,4.229,4.2295,4.2509,4.2513,4.2516,4.2557,0,0,0,0,0,0,4.1967,4.1988,4.2023,4.2066,4.2086,4.2195,4.2152,4.2156,4.2187,4.2183,4.2225,4.223,4.2236,4.2313,4.2327,4.2366,4.2299,4.2505,4.251,4.2515,4.2553,4.2562,4.257,0,0,0,0,0,4.196,4.2031,4.2025,4.2042,4.213,4.2197,4.2208,4.2216,4.219,4.2223,4.2242,4.2228,4.2353,4.232,4.2336,4.2377,4.2503,4.2509,4.2515,4.2549,4.256,4.257,0,0,0,0,0,0,4.199,4.2036,4.203,4.2118,4.2154,4.2194,4.2236,4.2229,4.2272,4.2266,4.2272,4.2282,4.2354,4.2373,4.2336,4.2459,4.2424,4.2433,4.2444,4.2455,4.2464,4.2457,4.2304,0,0,0,0,0,4.2007,4.206,4.2097,4.217,4.2189,4.2209,4.2239,4.2242,4.2278,4.2293,4.2317,4.2351,4.2397,4.2428,4.2472,4.2555,4.2562,4.2591,4.26,4.2607,4.2614,4.2655,4.2667,4.2537,4.2537,4.2537,0,0,4.2043,4.2075,4.2108,4.2177,4.2205,4.2256,4.2222,4.2279,4.2316,4.2301,4.2369,4.2388,4.2426,4.2502,4.2537,4.252,4.2651,4.2615,4.262,4.2623,4.2662,4.2674,4.2685,4.2541,4.254,4.254,0,0,4.2133,4.2165,4.2227,4.2255,4.2299,4.2311,4.2326,4.2367,4.2378,4.2448,4.2436,4.2478,4.256,4.2586,4.261,4.2706,4.2694,4.272,4.2766,4.2805,4.2815,4.2824,4.2855,4.2866,4.2728,4.2728,4.2728,0,4.2171,4.2251,4.2259,4.2316,4.2345,4.2335,4.2395,4.2422,4.2477,4.2495,4.2476,4.2575,4.26,4.268,4.2703,4.2725,4.2738,4.2715,4.2814,4.2823,4.2831,4.286,4.2872,4.2731,4.273,4.273,4.273,0,4.2293,4.2347,4.2392,4.2446,4.248,4.2538,4.2553,4.2585,4.2584,4.2598,4.2666,4.2695,4.2744,4.2763,4.2763,4.2842,4.283,4.2812,4.2776,4.2846,4.2873,4.2885,4.2734,4.2733,4.2733,4.2732,0,0,4.2406,4.2462,4.2478,4.25,4.2545,4.2586,4.2642,4.269,4.2716,4.2753,4.2798,4.2865,4.2848,4.2875,4.2877,4.2912,4.2981,4.2889,4.289,4.2902,4.3065,4.3076,4.3089,4.2974,4.2976,4.2978,4.306,0,4.2498,4.2598,4.2606,4.2695,4.2743,4.2732,4.278,4.2811,4.2824,4.2864,4.2878,4.2924,4.29,4.2916,4.295,4.2965,4.3013,4.296,4.3011,4.3013,4.3,4.3104,4.3117,4.3193,4.3071,4.3073,4.3075,0,4.2619,4.2659,4.2753,4.2788,4.2808,4.2851,4.2894,4.2934,4.2967,4.2973,4.3002,4.2999,4.3052,4.3015,4.3087,4.305,4.3071,4.3082,4.3085,4.3088,4.3046,4.3106,4.3219,4.3229,4.3092,4.3091,4.3089,0,4.2686,4.2765,4.283,4.285,4.2893,4.2923,4.2941,4.2972,4.2999,4.3036,4.3053,4.3095,4.3117,4.3148,4.3154,4.3128,4.3224,4.3189,4.3228,4.3228,4.3247,4.3246,4.3361,4.3266,4.3266,4.3266,4.3265,0,4.2786,4.2843,4.2861,4.2901,4.2963,4.2969,4.303,4.3046,4.3073,4.3113,4.3106,4.3144,4.3151,4.3189,4.3194,4.325,4.3261,4.3265,4.3265,4.3264,4.3263,4.3276,4.327,4.3269,4.3268,4.3267,4.3267,0,4.2873,4.2887,4.2957,4.2991,4.3001,4.3044,4.3072,4.3108,4.312,4.3171,4.3183,4.3201,4.3244,4.3254,4.3307,4.3309,4.3374,4.3371,4.3364,4.3362,4.3399,4.3394,4.3526,4.3541,4.3438,4.3439,4.344,0,4.2934,4.2978,4.3016,4.3043,4.3063,4.3107,4.3134,4.3141,4.3169,4.3208,4.3238,4.3282,4.3317,4.3386,4.3402,4.3441,4.3436,4.3479,4.3442,4.3438,4.3432,4.3429,4.3431,4.3486,4.3487,4.3488,4.3489,0,4.304,4.3044,4.3085,4.3127,4.316,4.3193,4.3225,4.3246,4.3257,4.3288,4.3334,4.3361,4.3413,4.3454,4.3493,4.3509,4.3499,4.35,4.3511,4.3509,4.3501,4.3502,4.338,4.3497,4.3496,4.3495,4.3495,4.3495,4.3114,4.315,4.3181,4.3225,4.325,4.3279,4.3313,4.3329,4.3367,4.3411,4.3412,4.346,4.3488,4.3538,4.3556,4.3592,4.3578,4.3594,4.3598,4.3601,4.3602,4.3498,4.3599,4.3599,4.3599,4.3599,4.3599,0,4.3216,4.3235,4.3276,4.332,4.3353,4.3343,4.3376,4.3404,4.3447,4.3474,4.3508,4.3558,4.3597,4.3615,4.3653,4.3678,4.3674,4.3687,4.3684,4.3687,4.3614,4.36,4.369,4.369,4.369,4.369,4.369,4.369,4.3273,4.3333,4.334,4.341,4.3428,4.3476,4.3495,4.352,4.3541,4.3597,4.363,4.3642,4.3665,4.3704,4.3738,4.3742,4.3755,4.377,4.3771,4.3702,4.3693,4.3684,4.367,4.3773,4.3773,4.3841,4.3841,4.3842]}]]